US 13 @ Nanticoke River, Seaford DE USA current weather conditions

sailwx.info

Wind from 271 at 0 knots gusting 2

Air temperature -3.1° C
Dewpoint -9.7° C

Last reported at 2020-Jan-18 11:00 UTC.
Time now 2020-Jan-18 11:54 UTC

Location: N 38°39' W 075°36'.
View on Google Maps.

See reports from other nearby stations

  
Tides and Currents Weather Stations Pressure Air Temp Water Temp Dewpoint Dewpoint Depression Visibility Wind Speed Wind Dir Waves Ship Positions
date/time (UTC)wind fromknots sea level pressurealtimeterstation pressurevisibilityair tempwater tempwave heightnotes
2020-Jan-18 11:00 271 0 gusting 2 -3.1
2020-Jan-18 10:50 338 1 gusting 2 -3.3
2020-Jan-18 10:45 351 1 gusting 2 -3.3
2020-Jan-18 10:40 -3.3
2020-Jan-18 10:35 -3.3
2020-Jan-18 10:30 086 0 -3.4
2020-Jan-18 10:25 -3.4
2020-Jan-18 10:20 -3.5
2020-Jan-18 10:15 323 1 gusting 2 -3.5
2020-Jan-18 10:10 001 0 gusting 2 -3.4
2020-Jan-18 10:05 -3.5
2020-Jan-18 10:00 306 1 gusting 3 -3.5
2020-Jan-18 09:55 307 2 gusting 3 -3.4
2020-Jan-18 09:50 329 1 gusting 2 -3.4
2020-Jan-18 09:45 341 1 gusting 2 -3.4
2020-Jan-18 09:40 359 1 gusting 2 -3.4
2020-Jan-18 09:35 308 1 gusting 2 -3.3
2020-Jan-18 09:30 311 1 -3.3
2020-Jan-18 09:25 -3.4
2020-Jan-18 09:20 -3.4
2020-Jan-18 09:15 273 1 -3.4
2020-Jan-18 09:10 -3.5
2020-Jan-18 09:05 -3.6
2020-Jan-18 09:00 141 0 -3.6
2020-Jan-18 08:55 -3.6
2020-Jan-18 08:50 -3.8
2020-Jan-18 08:45 -3.9
2020-Jan-18 08:40 227 0 -3.9
2020-Jan-18 08:35 -3.9
2020-Jan-18 08:30 -3.9
2020-Jan-18 08:25 115 1 gusting 2 -3.9
2020-Jan-18 08:20 184 1 -4.0
2020-Jan-18 08:15 -4.3
2020-Jan-18 08:10 175 1 gusting 2 -4.3
2020-Jan-18 08:05 113 1 gusting 2 -4.4
2020-Jan-18 08:00 130 1 gusting 2 -4.4
2020-Jan-18 07:55 056 1 gusting 2 -4.7
2020-Jan-18 07:50 -4.9
2020-Jan-18 07:45 104 1 gusting 3 -4.9
2020-Jan-18 07:40 116 0 gusting 2 -4.9
2020-Jan-18 07:35 124 1 gusting 2 -4.7
2020-Jan-18 07:30 -4.9
2020-Jan-18 07:25 129 1 gusting 2 -4.9
2020-Jan-18 07:20 132 1 gusting 2 -4.9
2020-Jan-18 07:15 145 1 gusting 2 -4.7
2020-Jan-18 07:10 -4.7
2020-Jan-18 07:05 -4.8
2020-Jan-18 07:00 -4.7
2020-Jan-18 06:55 101 1 gusting 4 -4.4
2020-Jan-18 06:50 087 2 gusting 4 -4.2
2020-Jan-18 06:45 089 1 gusting 5 -3.8
2020-Jan-18 06:40 074 1 gusting 5 -3.6
2020-Jan-18 06:35 054 2 gusting 5 -3.5
2020-Jan-18 06:30 030 2 gusting 5 -3.4
2020-Jan-18 06:25 034 3 gusting 5 -3.4
2020-Jan-18 06:20 030 3 gusting 5 -3.4
2020-Jan-18 06:15 037 2 gusting 5 -3.4
2020-Jan-18 06:10 055 2 gusting 5 -3.4
2020-Jan-18 06:05 062 3 gusting 5 -3.5
2020-Jan-18 06:00 064 2 gusting 6 -3.4
2020-Jan-18 05:55 051 2 gusting 6 -3.4
2020-Jan-18 05:50 040 4 gusting 6 -3.4
2020-Jan-18 05:45 048 3 gusting 6 -3.4
2020-Jan-18 05:40 048 3 gusting 6 -3.4
2020-Jan-18 05:35 052 2 gusting 6 -3.4
2020-Jan-18 05:30 022 3 gusting 6 -3.4
2020-Jan-18 05:25 032 3 gusting 6 -3.4
2020-Jan-18 05:20 056 3 gusting 6 -3.4
2020-Jan-18 05:15 016 3 gusting 6 -3.4
2020-Jan-18 05:10 027 2 gusting 5 -3.4
2020-Jan-18 05:05 028 3 gusting 6 -3.4
2020-Jan-18 05:00 046 4 gusting 6 -3.4
2020-Jan-18 04:55 051 2 gusting 6 -3.3
2020-Jan-18 04:50 034 3 gusting 5 -3.3
2020-Jan-18 04:45 035 3 gusting 5 -3.3
2020-Jan-18 04:40 045 2 gusting 6 -3.3
2020-Jan-18 04:35 041 3 gusting 6 -3.3
2020-Jan-18 04:30 043 3 gusting 7 -3.1
2020-Jan-18 04:25 038 3 gusting 7 -3.1
2020-Jan-18 04:20 030 4 gusting 7 -3.1
2020-Jan-18 04:15 019 4 gusting 7 -3.1
2020-Jan-18 04:10 024 3 gusting 5 -3.1
2020-Jan-18 04:05 046 2 gusting 5 -3.3
2020-Jan-18 04:00 043 2 gusting 5 -3.1
2020-Jan-18 03:55 027 2 gusting 5 -3.1
2020-Jan-18 03:50 038 3 gusting 5 -3.3
2020-Jan-18 03:45 046 1 gusting 5 -3.1
2020-Jan-18 03:40 040 3 gusting 5 -3.0
2020-Jan-18 03:35 020 2 gusting 6 -3.0
2020-Jan-18 03:30 005 3 gusting 6 -3.1
2020-Jan-18 03:25 350 2 gusting 5 -3.1
2020-Jan-18 03:20 351 3 gusting 5 -3.0
2020-Jan-18 03:15 025 3 gusting 5 -2.9
2020-Jan-18 03:10 059 2 gusting 4 -2.9
2020-Jan-18 03:05 035 2 gusting 4 -2.8
2020-Jan-18 03:00 028 2 gusting 4 -2.8
2020-Jan-18 02:55 055 2 gusting 4 -2.6
2020-Jan-18 02:50 025 3 gusting 4 -2.6
2020-Jan-18 02:45 047 1 gusting 4 -2.5
2020-Jan-18 02:40 004 3 gusting 4 -2.6
2020-Jan-18 02:35 358 2 gusting 5 -2.5
2020-Jan-18 02:30 353 3 gusting 5 -2.6
2020-Jan-18 02:25 002 3 gusting 5 -2.5
2020-Jan-18 02:20 356 2 gusting 4 -2.6
2020-Jan-18 02:15 355 2 gusting 4 -2.6
2020-Jan-18 02:10 303 2 gusting 5 -2.8
2020-Jan-18 02:05 352 4 gusting 5 -2.6
2020-Jan-18 02:00 312 2 gusting 5 -2.6
2020-Jan-18 01:55 347 3 gusting 5 -2.5
2020-Jan-18 01:50 323 2 gusting 4 -2.4
2020-Jan-18 01:45 354 2 gusting 4 -2.4
2020-Jan-18 01:40 001 3 gusting 4 -2.3
2020-Jan-18 01:35 357 2 gusting 4 -2.4
2020-Jan-18 01:30 340 2 gusting 4 -2.4
2020-Jan-18 01:25 344 2 gusting 4 -2.4
2020-Jan-18 01:20 335 1 gusting 3 -2.4
2020-Jan-18 01:15 332 1 gusting 3 -2.4
2020-Jan-18 01:10 340 2 gusting 4 -2.3
2020-Jan-18 01:05 344 2 gusting 4 -2.1
2020-Jan-18 01:00 326 2 gusting 4 -2.3
2020-Jan-18 00:55 343 2 gusting 4 -2.0
2020-Jan-18 00:50 343 2 gusting 3 -2.1
2020-Jan-18 00:45 338 1 gusting 3 -2.1
2020-Jan-18 00:40 330 2 gusting 4 -1.9
2020-Jan-18 00:35 292 1 gusting 4 -1.9
2020-Jan-18 00:30 325 1 gusting 4 -1.9
2020-Jan-18 00:25 347 2 gusting 4 -1.9
2020-Jan-18 00:20 338 2 gusting 4 -1.9
2020-Jan-18 00:15 284 2 gusting 4 -1.9
2020-Jan-18 00:10 318 2 gusting 7 -1.8
2020-Jan-18 00:05 342 2 gusting 7 -1.6
2020-Jan-18 00:00 321 1 gusting 5 -1.9
2020-Jan-17 23:55 343 2 gusting 4 -1.6
2020-Jan-17 23:50 329 2 gusting 5 -1.8
2020-Jan-17 23:45 322 2 gusting 6 -1.6
2020-Jan-17 23:40 342 3 gusting 6 -1.6
2020-Jan-17 23:35 346 3 gusting 6 -1.5
2020-Jan-17 23:30 334 3 gusting 6 -1.4
2020-Jan-17 23:25 358 3 gusting 7 -1.4
2020-Jan-17 23:20 341 4 gusting 8 -1.4
2020-Jan-17 23:15 346 4 gusting 8 -1.3
2020-Jan-17 23:10 346 5 gusting 9 -1.1
2020-Jan-17 23:05 340 4 gusting 9 -1.1
2020-Jan-17 23:00 349 5 gusting 8 -1.1
2020-Jan-17 22:55 344 4 gusting 7 -1.1
2020-Jan-17 22:50 339 4 gusting 7 -1.0
2020-Jan-17 22:45 346 4 gusting 7 -0.9
2020-Jan-17 22:40 346 4 gusting 7 -0.9
2020-Jan-17 22:35 349 5 gusting 7 -0.9
2020-Jan-17 22:30 330 3 gusting 11 -0.8
2020-Jan-17 22:25 348 5 gusting 11 -0.5
2020-Jan-17 22:20 002 6 gusting 9 -0.4
2020-Jan-17 22:15 358 5 gusting 11 -0.4
2020-Jan-17 20:50 323 6 gusting 12 1.1
2020-Jan-17 20:45 358 5 gusting 13 1.4
2020-Jan-17 20:40 351 7 gusting 13 1.1
2020-Jan-17 20:35 344 7 gusting 12 1.0
2020-Jan-17 20:30 343 6 gusting 15 1.1
2020-Jan-17 20:25 008 6 gusting 15 1.6
2020-Jan-17 20:20 324 6 gusting 11 1.4
2020-Jan-17 20:15 348 6 gusting 11 1.4
2020-Jan-17 20:10 344 5 gusting 13 1.2
2020-Jan-17 20:05 355 8 gusting 13 1.2
2020-Jan-17 20:00 353 7 gusting 11 1.4
2020-Jan-17 19:55 340 6 gusting 11 1.1
2020-Jan-17 19:50 353 7 gusting 13 1.6
2020-Jan-17 19:45 348 7 gusting 13 1.1
2020-Jan-17 19:40 351 8 gusting 12 1.4
2020-Jan-17 19:35 340 6 gusting 17 1.4
2020-Jan-17 19:30 354 8 gusting 17 1.4
2020-Jan-17 19:25 354 9 gusting 17 1.4
2020-Jan-17 19:20 359 7 gusting 14 1.9
2020-Jan-17 19:15 022 8 gusting 14 2.0
2020-Jan-17 19:10 011 4 gusting 13 1.2
2020-Jan-17 19:05 356 7 gusting 15 1.4
2020-Jan-17 19:00 352 8 gusting 16 1.7
2020-Jan-17 18:55 337 9 gusting 16 1.1
2020-Jan-17 18:50 359 10 gusting 16 1.5
2020-Jan-17 18:45 343 10 gusting 16 1.1
2020-Jan-17 18:40 349 9 gusting 16 1.5
2020-Jan-17 18:35 007 8 gusting 17 1.6
2020-Jan-17 18:30 009 12 gusting 17 1.7
2020-Jan-17 18:25 006 10 gusting 18 1.5
2020-Jan-17 18:20 343 9 gusting 18 1.5
2020-Jan-17 18:15 356 9 gusting 16 1.6
2020-Jan-17 18:10 347 11 gusting 19 1.4
2020-Jan-17 18:05 347 10 gusting 19 1.1
2020-Jan-17 18:00 008 12 gusting 17 1.6
2020-Jan-17 17:55 339 8 gusting 14 1.4
2020-Jan-17 17:50 337 8 gusting 17 1.4
2020-Jan-17 17:45 352 9 gusting 17 1.5
2020-Jan-17 17:40 348 6 gusting 17 1.5
2020-Jan-17 17:35 335 9 gusting 17 1.0
2020-Jan-17 17:30 335 11 gusting 17 1.2
2020-Jan-17 17:25 350 9 gusting 14 1.6
2020-Jan-17 17:20 336 7 gusting 18 1.4
2020-Jan-17 17:15 335 11 gusting 18 1.1
2020-Jan-17 17:10 357 9 gusting 19 1.2
2020-Jan-17 17:05 351 12 gusting 19 1.6
2020-Jan-17 17:00 359 11 gusting 17 1.1
2020-Jan-17 16:55 006 10 gusting 21 1.1
2020-Jan-17 16:50 354 13 gusting 21 1.0
2020-Jan-17 16:45 355 9 gusting 20 1.1
2020-Jan-17 16:40 349 11 gusting 18 1.2
2020-Jan-17 16:35 350 11 gusting 18 1.1
2020-Jan-17 16:30 359 10 gusting 18 1.4
2020-Jan-17 16:25 002 11 gusting 18 1.0
2020-Jan-17 16:20 360 8 gusting 17 1.2
2020-Jan-17 16:15 336 8 gusting 17 0.6
2020-Jan-17 16:10 337 8 gusting 16 0.7
2020-Jan-17 16:05 356 9 gusting 16 0.8
2020-Jan-17 16:00 348 9 gusting 16 0.8
2020-Jan-17 15:55 332 10 gusting 17 0.6
2020-Jan-17 15:50 339 10 gusting 17 0.6
2020-Jan-17 15:45 005 11 gusting 18 0.5
2020-Jan-17 15:40 356 10 gusting 18 0.3
2020-Jan-17 15:35 355 9 gusting 22 0.6
2020-Jan-17 15:30 355 9 gusting 24 0.3
2020-Jan-17 15:25 357 15 gusting 24 0.2
2020-Jan-17 15:20 353 10 gusting 19 0.6
2020-Jan-17 15:15 345 11 gusting 20 0.2
2020-Jan-17 15:10 349 9 gusting 20 0.2
2020-Jan-17 15:05 357 13 gusting 20 0.2
2020-Jan-17 15:00 354 13 gusting 18 0.1
2020-Jan-17 14:55 357 10 gusting 18 0.1
2020-Jan-17 14:50 008 11 gusting 18 0.2
2020-Jan-17 14:45 001 7 gusting 16 -0.0
2020-Jan-17 14:40 350 9 gusting 16 -0.0
2020-Jan-17 14:35 345 11 gusting 16 -0.3
2020-Jan-17 14:30 350 5 gusting 19 -0.0
2020-Jan-17 14:25 342 8 gusting 20 -0.4
2020-Jan-17 14:20 320 10 gusting 20 -0.4
2020-Jan-17 14:15 341 9 gusting 14 -0.3
2020-Jan-17 14:10 354 8 gusting 15 -0.4
2020-Jan-17 14:05 337 10 gusting 16 -0.4
2020-Jan-17 14:00 335 9 gusting 17 -0.4
2020-Jan-17 13:55 342 7 gusting 21 -0.5
2020-Jan-17 13:50 345 10 gusting 21 -0.7
2020-Jan-17 13:45 343 10 gusting 16 -0.5
2020-Jan-17 13:40 355 8 gusting 16 -0.7
2020-Jan-17 13:35 338 8 gusting 14 -0.7
2020-Jan-17 13:30 350 7 gusting 14 -0.7
2020-Jan-17 13:25 348 7 gusting 19 -0.7
2020-Jan-17 13:20 355 11 gusting 19 -0.8
2020-Jan-17 13:15 336 7 gusting 15 -0.8
2020-Jan-17 13:10 352 9 gusting 14 -0.8
2020-Jan-17 13:05 345 8 gusting 13 -0.9
2020-Jan-17 13:00 352 9 gusting 15 -0.8
2020-Jan-17 12:55 349 9 gusting 15 -0.8
2020-Jan-17 12:50 352 8 gusting 15 -0.8
2020-Jan-17 12:45 347 7 gusting 14 -0.8
2020-Jan-17 12:40 343 7 gusting 16 -0.8
2020-Jan-17 12:35 355 8 gusting 17 -0.8
2020-Jan-17 12:30 341 6 gusting 17 -0.7
2020-Jan-17 12:25 342 10 gusting 15 -0.7
2020-Jan-17 12:20 356 10 gusting 15 -0.5
2020-Jan-17 12:15 339 10 gusting 15 -0.5
2020-Jan-17 12:10 355 9 gusting 20 -0.4
2020-Jan-17 12:05 357 8 gusting 20 -0.4
2020-Jan-17 12:00 345 7 gusting 14 -0.3
2020-Jan-17 11:55 339 9 gusting 14 -0.3
2020-Jan-17 11:50 331 6 gusting 14 -0.1
2020-Jan-17 11:45 348 6 gusting 17 -0.0
2020-Jan-17 11:40 345 11 gusting 17 0.1
2020-Jan-17 11:35 340 8 gusting 19 0.1
2020-Jan-17 11:30 347 9 gusting 19 0.2
2020-Jan-17 11:25 331 11 gusting 22 0.2
2020-Jan-17 11:20 336 10 gusting 22 0.2
2020-Jan-17 11:15 330 6 gusting 13 0.3
2020-Jan-17 11:10 339 5 gusting 15 0.3
2020-Jan-17 11:05 327 8 gusting 16 0.5
2020-Jan-17 11:00 335 8 gusting 16 0.5
2020-Jan-17 10:55 324 8 gusting 15 0.6
2020-Jan-17 10:50 338 8 gusting 16 0.5
2020-Jan-17 10:45 342 7 gusting 16 0.5
2020-Jan-17 10:40 348 5 gusting 14 0.6
2020-Jan-17 10:35 348 8 gusting 18 0.6
2020-Jan-17 10:30 345 8 gusting 18 0.6
2020-Jan-17 10:25 352 8 gusting 17 0.7
2020-Jan-17 10:20 343 7 gusting 13 0.6
2020-Jan-17 10:15 345 6 gusting 13 0.7
2020-Jan-17 10:10 342 6 gusting 18 0.8
2020-Jan-17 10:05 344 9 gusting 18 0.8
2020-Jan-17 10:00 337 10 gusting 19 1.0
2020-Jan-17 09:55 343 7 gusting 22 1.0
2020-Jan-17 09:50 344 9 gusting 22 1.1
2020-Jan-17 09:45 333 8 gusting 19 1.1
2020-Jan-17 09:40 332 8 gusting 20 1.1
2020-Jan-17 09:35 326 8 gusting 20 1.1
2020-Jan-17 09:30 327 7 gusting 15 1.1
2020-Jan-17 09:25 330 6 gusting 14 1.0
2020-Jan-17 09:20 320 5 gusting 17 1.0
2020-Jan-17 09:15 323 6 gusting 17 1.1
2020-Jan-17 09:10 335 9 gusting 15 1.1
2020-Jan-17 09:05 334 5 gusting 9 1.1
2020-Jan-17 09:00 318 5 gusting 9 1.1
2020-Jan-17 08:55 333 3 gusting 11 1.1
2020-Jan-17 08:50 334 6 gusting 11 1.1
2020-Jan-17 08:45 338 5 gusting 11 1.1
2020-Jan-17 08:40 330 4 gusting 10 1.1
2020-Jan-17 08:35 329 5 gusting 12 1.1
2020-Jan-17 08:30 316 5 gusting 12 1.1
2020-Jan-17 08:25 309 4 gusting 8 1.1
2020-Jan-17 08:20 328 4 gusting 8 1.2
2020-Jan-17 08:15 315 4 gusting 8 1.4
2020-Jan-17 08:10 337 2 gusting 8 1.4
2020-Jan-17 08:05 334 3 gusting 11 1.5
2020-Jan-17 08:00 333 6 gusting 11 1.6
2020-Jan-17 07:55 324 5 gusting 9 1.6
2020-Jan-17 07:50 335 5 gusting 14 1.6
2020-Jan-17 07:45 338 7 gusting 14 1.7
2020-Jan-17 07:40 328 5 gusting 14 1.7
2020-Jan-17 07:35 340 7 gusting 14 1.9
2020-Jan-17 07:30 348 6 gusting 13 1.7
2020-Jan-17 07:25 340 5 gusting 13 1.9
2020-Jan-17 07:20 339 7 gusting 13 1.9
2020-Jan-17 07:15 334 5 gusting 12 1.9
2020-Jan-17 07:10 319 3 gusting 12 1.9
2020-Jan-17 07:05 329 3 gusting 12 2.0
2020-Jan-17 07:00 337 7 gusting 14 2.1
2020-Jan-17 06:55 339 7 gusting 14 2.1
2020-Jan-17 06:50 335 6 gusting 15 2.1
2020-Jan-17 06:45 331 8 gusting 15 2.2
2020-Jan-17 06:40 316 6 gusting 16 2.1
2020-Jan-17 06:35 314 6 gusting 16 2.2
2020-Jan-17 06:30 318 4 gusting 12 2.2
2020-Jan-17 06:25 321 5 gusting 13 2.2
2020-Jan-17 06:20 328 6 gusting 15 2.4
2020-Jan-17 06:15 325 6 gusting 17 2.5
2020-Jan-17 06:10 320 7 gusting 17 2.6
2020-Jan-17 06:05 327 6 gusting 17 2.6
2020-Jan-17 06:00 325 6 gusting 12 2.6
2020-Jan-17 05:55 331 7 gusting 14 2.6
2020-Jan-17 05:50 329 7 gusting 18 2.7
2020-Jan-17 05:45 334 9 gusting 18 2.9
2020-Jan-17 05:40 323 7 gusting 17 2.9
2020-Jan-17 05:35 320 9 gusting 17 2.7
2020-Jan-17 05:30 323 8 gusting 19 2.9
2020-Jan-17 05:25 331 7 gusting 19 3.0
2020-Jan-17 05:20 328 7 gusting 13 2.9
2020-Jan-17 05:15 325 6 gusting 13 2.9
2020-Jan-17 05:10 322 5 gusting 15 3.0
2020-Jan-17 05:05 320 5 gusting 15 3.0
2020-Jan-17 05:00 325 6 gusting 15 2.9
2020-Jan-17 04:55 346 5 gusting 18 3.0
2020-Jan-17 04:50 308 8 gusting 20 3.1
2020-Jan-17 04:45 311 7 gusting 20 3.1
2020-Jan-17 04:40 314 8 gusting 16 3.1
2020-Jan-17 04:35 333 8 gusting 17 3.1
2020-Jan-17 04:30 320 7 gusting 18 3.1
2020-Jan-17 04:25 319 10 gusting 18 3.2
2020-Jan-17 04:20 325 10 gusting 19 3.1
2020-Jan-17 04:15 322 9 gusting 20 3.2
2020-Jan-17 04:10 335 9 gusting 20 3.1
2020-Jan-17 04:05 306 7 gusting 16 3.2
2020-Jan-17 04:00 320 6 gusting 15 3.2
2020-Jan-17 03:55 322 7 gusting 15 3.2
2020-Jan-17 03:50 308 7 gusting 15 3.4
2020-Jan-17 03:45 322 7 gusting 18 3.4
2020-Jan-17 03:40 314 9 gusting 20 3.5
2020-Jan-17 03:35 329 11 gusting 20 3.6
2020-Jan-17 03:30 314 9 gusting 17 3.6
2020-Jan-17 03:25 323 9 gusting 17 3.6
2020-Jan-17 03:20 316 6 gusting 22 3.6
2020-Jan-17 03:15 318 11 gusting 22 3.6
2020-Jan-17 03:10 319 6 gusting 23 3.6
2020-Jan-17 03:05 319 10 gusting 23 3.6
2020-Jan-17 03:00 313 9 gusting 19 3.7
2020-Jan-17 02:55 311 10 gusting 19 3.7
2020-Jan-17 02:50 315 8 gusting 18 3.7
2020-Jan-17 02:45 316 9 gusting 16 3.9
2020-Jan-17 02:40 314 7 gusting 20 4.0
2020-Jan-17 02:35 315 10 gusting 21 4.1
2020-Jan-17 02:30 309 9 gusting 22 4.1
2020-Jan-17 02:25 315 10 gusting 22 4.1
2020-Jan-17 02:20 315 9 gusting 24 4.1
2020-Jan-17 02:15 321 11 gusting 24 4.1
2020-Jan-17 02:10 312 9 gusting 18 4.1
2020-Jan-17 02:05 312 11 gusting 18 4.2
2020-Jan-17 02:00 323 7 gusting 21 4.2
2020-Jan-17 01:55 310 10 gusting 22 4.3
2020-Jan-17 01:50 306 11 gusting 22 4.3
2020-Jan-17 01:45 313 6 gusting 18 4.5
2020-Jan-17 01:40 322 8 gusting 18 4.6
2020-Jan-17 01:35 311 8 gusting 16 4.6
2020-Jan-17 01:30 314 8 gusting 16 4.6
2020-Jan-17 01:25 313 4 gusting 13 4.7
2020-Jan-17 01:20 323 6 gusting 13 4.8
2020-Jan-17 01:15 319 8 gusting 15 5.0
2020-Jan-17 01:10 312 7 gusting 18 5.1
2020-Jan-17 01:05 323 8 gusting 21 5.2
2020-Jan-17 01:00 326 10 gusting 21 5.2
2020-Jan-17 00:55 323 5 gusting 21 5.2
2020-Jan-17 00:50 312 7 gusting 21 5.5
2020-Jan-17 00:45 317 9 gusting 21 5.6
2020-Jan-17 00:40 322 9 gusting 21 5.6
2020-Jan-17 00:35 321 11 gusting 23 5.7
2020-Jan-17 00:30 323 9 gusting 29 5.8
2020-Jan-17 00:25 331 10 gusting 29 6.1
2020-Jan-17 00:20 320 9 gusting 26 6.1
2020-Jan-17 00:15 334 14 gusting 26 6.1
2020-Jan-17 00:10 334 11 gusting 25 6.2
2020-Jan-17 00:05 325 10 gusting 22 6.2
2020-Jan-17 00:00 341 12 gusting 25 6.5
2020-Jan-16 23:55 334 13 gusting 29 6.6
2020-Jan-16 23:50 343 11 gusting 29 6.8
2020-Jan-16 23:45 325 13 gusting 25 7.1
2020-Jan-16 23:40 356 11 gusting 19 7.5
2020-Jan-16 23:35 339 10 gusting 20 7.6
2020-Jan-16 23:30 323 11 gusting 20 7.6
2020-Jan-16 23:25 324 10 gusting 21 7.7
2020-Jan-16 23:20 312 10 gusting 21 7.7
2020-Jan-16 23:15 317 8 gusting 13 7.6
2020-Jan-16 23:10 311 6 gusting 13 7.6
2020-Jan-16 23:05 311 6 gusting 13 7.6
2020-Jan-16 23:00 317 5 gusting 12 7.5
2020-Jan-16 22:55 302 6 gusting 12 7.5
2020-Jan-16 22:50 322 3 gusting 9 7.5
2020-Jan-16 22:45 318 4 gusting 10 7.5
2020-Jan-16 22:40 310 6 gusting 10 7.5
2020-Jan-16 22:35 320 4 gusting 14 7.6
2020-Jan-16 22:30 314 6 gusting 19 7.6
2020-Jan-16 22:25 312 5 gusting 19 7.7
2020-Jan-16 22:20 303 9 gusting 19 7.7
2020-Jan-16 22:15 312 5 gusting 16 7.7
2020-Jan-16 22:10 325 8 gusting 16 8.0
2020-Jan-16 22:05 315 7 gusting 15 8.0
2020-Jan-16 22:00 324 6 gusting 13 8.1
2020-Jan-16 21:55 320 7 gusting 13 8.1
2020-Jan-16 21:50 305 7 gusting 16 8.2
2020-Jan-16 21:45 320 8 gusting 16 8.3
2020-Jan-16 21:40 315 4 gusting 20 8.5
2020-Jan-16 21:35 306 11 gusting 20 8.6
2020-Jan-16 21:30 318 6 gusting 19 8.6
2020-Jan-16 21:25 338 11 gusting 19 8.7
2020-Jan-16 21:20 322 7 gusting 17 8.7
2020-Jan-16 21:15 330 6 gusting 17 8.7
2020-Jan-16 21:10 313 7 gusting 17 8.8
2020-Jan-16 21:05 326 7 gusting 21 9.0
2020-Jan-16 21:00 319 7 gusting 24 9.1
2020-Jan-16 20:55 315 9 gusting 24 9.2
2020-Jan-16 20:50 319 11 gusting 23 9.3
2020-Jan-16 20:45 337 10 gusting 23 9.6
2020-Jan-16 20:40 336 12 gusting 23 9.6
2020-Jan-16 20:35 318 10 gusting 24 9.6
2020-Jan-16 20:30 320 9 gusting 24 10.0
2020-Jan-16 20:25 320 10 gusting 21 10.0
2020-Jan-16 20:20 318 10 gusting 21 10.2
2020-Jan-16 20:15 316 9 gusting 21 10.4
2020-Jan-16 20:10 311 9 gusting 20 10.4
2020-Jan-16 20:05 331 9 gusting 18 10.7
2020-Jan-16 20:00 326 9 gusting 22 10.8
2020-Jan-16 19:55 324 8 gusting 22 10.8
2020-Jan-16 19:50 328 10 gusting 24 10.8
2020-Jan-16 19:45 312 12 gusting 24 10.9
2020-Jan-16 19:40 327 13 gusting 24 11.2
2020-Jan-16 19:35 324 10 gusting 21 11.4
2020-Jan-16 19:30 310 7 gusting 22 11.4
2020-Jan-16 19:25 323 12 gusting 22 11.2
2020-Jan-16 19:20 324 9 gusting 19 11.4
2020-Jan-16 19:15 323 10 gusting 21 11.6
2020-Jan-16 19:10 323 9 gusting 21 11.7
2020-Jan-16 19:05 332 10 gusting 20 11.8
2020-Jan-16 19:00 323 9 gusting 20 11.7
2020-Jan-16 18:55 317 6 gusting 19 12.2
2020-Jan-16 18:50 306 8 gusting 19 12.1
2020-Jan-16 18:45 325 11 gusting 25 11.8
2020-Jan-16 18:40 312 14 gusting 25 11.7
2020-Jan-16 18:35 295 8 gusting 18 11.9
2020-Jan-16 18:30 287 10 gusting 20 12.1
2020-Jan-16 18:25 304 8 gusting 20 11.8
2020-Jan-16 18:20 290 9 gusting 21 12.2
2020-Jan-16 18:15 304 8 gusting 21 12.1
2020-Jan-16 18:10 294 7 gusting 20 12.1
2020-Jan-16 18:05 295 12 gusting 20 11.9
2020-Jan-16 18:00 313 9 gusting 20 11.9
2020-Jan-16 17:55 315 6 gusting 19 12.2
2020-Jan-16 17:50 316 7 gusting 19 11.9
2020-Jan-16 17:45 328 9 gusting 21 11.9
2020-Jan-16 17:40 328 10 gusting 21 11.8
2020-Jan-16 17:35 326 7 gusting 21 12.1
2020-Jan-16 17:30 314 10 gusting 19 11.8
2020-Jan-16 17:25 313 7 gusting 16 11.6
2020-Jan-16 17:20 308 10 gusting 19 11.6
2020-Jan-16 17:15 311 8 gusting 24 11.3
2020-Jan-16 17:10 281 12 gusting 24 11.3
2020-Jan-16 17:05 309 6 gusting 13 11.4
2020-Jan-16 17:00 329 4 gusting 14 11.8
2020-Jan-16 16:55 284 6 gusting 15 11.8
2020-Jan-16 16:50 322 8 gusting 15 11.2
2020-Jan-16 16:45 318 6 gusting 17 11.2
2020-Jan-16 16:40 317 9 gusting 19 11.2
2020-Jan-16 16:35 315 11 gusting 20 11.2
2020-Jan-16 16:30 320 12 gusting 20 11.3
2020-Jan-16 16:25 314 7 gusting 21 11.6
2020-Jan-16 16:20 325 7 gusting 21 11.6
2020-Jan-16 16:15 301 9 gusting 20 11.7
2020-Jan-16 16:10 315 10 gusting 20 11.8
2020-Jan-16 16:05 319 9 gusting 20 11.8
2020-Jan-16 16:00 325 9 gusting 20 11.8
2020-Jan-16 15:55 313 6 gusting 21 11.8
2020-Jan-16 15:50 305 11 gusting 21 11.9
2020-Jan-16 15:45 313 8 gusting 17 12.2
2020-Jan-16 15:40 298 6 gusting 15 12.3
2020-Jan-16 15:35 306 6 gusting 15 12.3
2020-Jan-16 15:30 309 7 gusting 19 12.4
2020-Jan-16 15:25 321 10 gusting 21 12.3
2020-Jan-16 15:20 331 10 gusting 21 12.4
2020-Jan-16 15:15 315 10 gusting 21 12.7
2020-Jan-16 15:10 303 9 gusting 20 12.8
2020-Jan-16 15:05 307 8 gusting 23 12.8
2020-Jan-16 15:00 313 7 gusting 23 12.9
2020-Jan-16 14:55 295 13 gusting 23 12.9
2020-Jan-16 14:50 300 10 gusting 20 13.1
2020-Jan-16 14:45 289 7 gusting 18 12.9
2020-Jan-16 14:40 286 6 gusting 15 12.9
2020-Jan-16 14:35 293 7 gusting 17 12.8
2020-Jan-16 14:30 296 8 gusting 17 12.8
2020-Jan-16 14:25 296 8 gusting 15 12.8
2020-Jan-16 14:20 295 6 gusting 17 12.8
2020-Jan-16 14:15 280 6 gusting 17 12.8
2020-Jan-16 14:10 300 5 gusting 17 12.8
2020-Jan-16 14:05 293 8 gusting 17 12.8
2020-Jan-16 14:00 283 6 gusting 14 12.8
2020-Jan-16 13:55 298 6 gusting 14 12.7
2020-Jan-16 13:50 291 6 gusting 14 12.7
2020-Jan-16 13:45 299 6 gusting 12 12.7
2020-Jan-16 13:40 297 6 gusting 15 12.8
2020-Jan-16 13:35 298 8 gusting 17 13.1
2020-Jan-16 13:30 315 8 gusting 18 12.7
2020-Jan-16 13:25 303 8 gusting 18 12.6
2020-Jan-16 13:20 310 8 gusting 15 12.4
2020-Jan-16 13:15 306 9 gusting 15 12.2
2020-Jan-16 13:10 298 5 gusting 15 12.1
2020-Jan-16 13:05 310 6 gusting 15 11.9
2020-Jan-16 13:00 309 6 gusting 15 11.9
2020-Jan-16 12:55 301 5 gusting 16 11.8
2020-Jan-16 12:50 310 7 gusting 16 11.9
2020-Jan-16 12:45 301 6 gusting 12 11.9
2020-Jan-16 12:40 303 6 gusting 14 11.9
2020-Jan-16 12:35 303 7 gusting 14 11.8
2020-Jan-16 12:30 305 7 gusting 13 11.8
2020-Jan-16 12:25 291 6 gusting 13 11.7
2020-Jan-16 12:20 294 5 gusting 13 11.3
2020-Jan-16 12:15 300 5 gusting 12 11.2
2020-Jan-16 12:10 297 5 gusting 12 10.9
2020-Jan-16 12:05 281 5 gusting 9 10.8
2020-Jan-16 12:00 270 5 gusting 9 10.8
2020-Jan-16 11:55 272 4 gusting 9 10.7
2020-Jan-16 11:50 254 4 gusting 8 10.8
2020-Jan-16 11:45 264 3 gusting 8 10.8
2020-Jan-16 11:40 251 4 gusting 8 10.8
2020-Jan-16 11:35 274 3 gusting 8 10.8
2020-Jan-16 11:30 284 4 gusting 9 10.8